Weather in Krasnyi Kut

Ukraine / Luhansk Region     48°12′09″N   38°47′24″E
temp.,
°C
wind,
m/s
gust,
m/s
humid.,
%
clouds,
%
prec.,
mm/h
press.,
hPa
HPBL,
m
14 may, fri
fri1400:00+13e228798 0.0 101412
03:00+13e338884 0.0 101330
06:00+14ese41484100 0.0 1012309
09:00+19se71464100 0.0 1012531
12:00+23sse685591 0.0 1012742
15:00+25sse675096 0.0 1011958
18:00+24s4764100 0.0 1011365
21:00+18s338490 0.0 101123
15 may, sat
sat1500:00+16sw22810 0.0 101214
03:00+15w22615 0.0 101211
06:00+15nw2279100 0.0 101336
09:00+21wnw22595 0.0 1014380
12:00+24wnw224211 0.0 10141364
15:00+25wsw223820 0.0 10131915
18:00+25sw224977 0.0 1013163
21:00+18nnw2262100 0.0 101312
16 may, sun
sun1600:00+17nne3667100 0.0 101379
03:00+15nne36774 0.0 101394
06:00+16ne4108444 0.0 1012214
09:00+21ne577112 0.0 1012461
12:00+25ene565429 0.0 10101028
15:00+26e6649100 0.0 10101178
18:00+23e475861 0.0 1009370
21:00+18ene34737 0.0 100852
17 may, mon
mon1700:00+17e31074100 0.0 1007192
03:00+16e31061100 0.0 1007166
06:00+16ese515615 0.0 1007359
09:00+20se7105147 0.0 1007619
12:00+24se674643 0.0 1006941
15:00+25sse56497 0.0 10071112
18:00+24sse356037 0.0 1006446
21:00+18s3382100 0.0 100749
18 may, tue
tue1800:00+16sw39915 0.0 1008206
03:00+15ssw359981 0.0 1008157
06:00+16s3498100 3.1 1010187
09:00+20wsw4580100 3.4 1010486
12:00+24wsw445692 0.0 10101455
15:00+25sw454677 0.1 10102269
18:00+21wsw36703 0.3 1011154
21:00+17s34820 0.4 101259